Big Piney, WY

6:08 AM MST on January 22, 2018 (GMT -0700)
Big Piney-Marbleton

Weather History for KBPI - December, 2011

Change the Weather History Date:

Saturday, December 31, 2011

  Actual Average Record
Temperature  
Mean Temperature 14 °F 11 °F  
Max Temperature 28 °F 26 °F 45 °F (1980)
Min Temperature -2 °F -2 °F -35 °F (2014)
Degree Days  
Heating Degree Days 51 54  
Month to date heating degree days 1626  
Since 1 July heating degree days 4439  
Cooling Degree Days 0 0  
Month to date cooling degree days 0  
Year to date cooling degree days 35  
Moisture  
Dew Point 9 °F    
Average Humidity 70    
Maximum Humidity 86    
Minimum Humidity 43    
Precipitation  
Precipitation 0.00 in 0.02 in 0.07 in (2005)
Month to date precipitation 0.30  
Year to date precipitation 6.48  
Sea Level Pressure  
Sea Level Pressure 30.13 in    
Wind  
Wind Speed 17 mph (NW)    
Max Wind Speed 26 mph    
Max Gust Speed 37 mph    
Visibility 9 miles    
Events Snow    
T = Trace of Precipitation, MM = Missing Value Source: NWS Daily Summary

Daily Weather History Graph

Daily Weather History Graph

Search for Another Location

Airport or City:

Trip Planner

Search our weather history database for the weather conditions in past years. The results will help you decide how hot, cold, wet, or windy it might be!

Date:

Astronomy

Dec. 31, 2011 Rise Set
Actual Time 7:50 AM MST 4:56 PM MST
Civil Twilight 7:18 AM MST 5:28 PM MST
Nautical Twilight 6:42 AM MST 6:04 PM MST
Astronomical Twilight 6:08 AM MST 6:38 PM MST
Moon 11:26 AM MST (12/31) No Moon Set
Length of Visible Light 10h 10m
Length of Day
9h 06m
Waxing Crescent, 45% of the Moon is Illuminated
Dec 31
Waxing Crescent
Dec 31
First Quarter
Jan 9
Full
Jan 16
Last Quarter
Jan 23
New

Hourly Weather History & Observations

Time (MST) Temp. Windchill Dew Point Humidity Pressure Visibility Wind Dir Wind Speed Gust Speed Precip Events Conditions
12:53 AM 28.9 °F 16.1 °F 21.0 °F 72% 29.66 in 10.0 mi NW 19.6 mph 27.6 mph N/A   Overcast
1:53 AM 26.1 °F 16.8 °F 17.1 °F 69% 29.65 in 10.0 mi WNW 9.2 mph - N/A   Overcast
2:53 AM 24.1 °F 9.4 °F 17.1 °F 75% 29.70 in 10.0 mi West 20.7 mph 25.3 mph 0.00 in   Overcast
3:53 AM 24.1 °F 9.4 °F 17.1 °F 75% 29.70 in 7.0 mi West 20.7 mph 26.5 mph 0.00 in Snow Light Snow
4:53 AM 23.0 °F 6.9 °F 14.0 °F 68% 29.80 in 10.0 mi NW 24.2 mph 35.7 mph 0.00 in   Overcast
5:18 AM 21.2 °F 3.9 °F 15.8 °F 80% 29.82 in 2.5 mi NW 26.5 mph 35.7 mph 0.00 in Snow Light Snow
5:26 AM 21.2 °F 4.2 °F 15.8 °F 80% 29.83 in 1.5 mi WNW 25.3 mph 33.4 mph 0.00 in Snow Light Snow
5:32 AM 21.2 °F 3.9 °F 15.8 °F 80% 29.83 in 3.0 mi WNW 26.5 mph 34.5 mph 0.00 in Snow Light Snow
5:53 AM 19.9 °F 2.5 °F 16.0 °F 85% 29.87 in 4.0 mi WNW 25.3 mph 36.8 mph 0.00 in Snow Light Snow
6:00 AM 19.4 °F 1.4 °F 15.8 °F 86% 29.86 in 6.0 mi WNW 26.5 mph 36.8 mph 0.00 in Snow Light Snow
6:53 AM 19.4 °F 3.2 °F 12.2 °F 74% 29.92 in 10.0 mi WNW 20.7 mph 28.8 mph N/A   Clear
7:53 AM 17.1 °F 3.6 °F 10.0 °F 74% 30.03 in 10.0 mi WNW 12.7 mph - N/A   Clear
8:53 AM 19.4 °F 9.5 °F 10.4 °F 68% 30.06 in 10.0 mi WNW 8.1 mph - N/A   Clear
9:53 AM 24.1 °F 10.1 °F 12.0 °F 60% 30.17 in 10.0 mi NNW 18.4 mph 23.0 mph N/A   Clear
10:53 AM 24.1 °F 10.1 °F 9.0 °F 53% 30.19 in 10.0 mi NNW 18.4 mph 25.3 mph N/A   Clear
11:53 AM 25.0 °F 12.6 °F 8.1 °F 49% 30.19 in 10.0 mi NW 15.0 mph 24.2 mph N/A   Clear
12:53 PM 26.1 °F 14.5 °F 8.1 °F 47% 30.23 in 10.0 mi North 13.8 mph - N/A   Clear
1:53 PM 26.1 °F 14.0 °F 6.1 °F 43% 30.26 in 10.0 mi NNW 15.0 mph - N/A   Clear
2:53 PM 24.1 °F 13.1 °F 6.1 °F 46% 30.32 in 10.0 mi NNW 11.5 mph - N/A   Clear
3:53 PM 21.9 °F 8.7 °F 7.0 °F 53% 30.35 in 10.0 mi North 15.0 mph - N/A   Clear
4:53 PM 16.0 °F 5.3 °F 7.0 °F 68% 30.43 in 10.0 mi NE 8.1 mph - N/A   Clear
5:53 PM 12.9 °F 1.6 °F 5.0 °F 71% 30.47 in 10.0 mi North 8.1 mph - N/A   Clear
6:53 PM 12.0 °F - 3.9 °F 70% 30.52 in 10.0 mi Calm Calm - N/A   Clear
7:53 PM 6.1 °F -0.9 °F -0.0 °F 76% 30.59 in 10.0 mi WNW 3.5 mph - N/A   Clear
8:53 PM 1.9 °F -5.6 °F -2.0 °F 83% 30.61 in 10.0 mi NNW 3.5 mph - N/A   Clear
9:53 PM 1.4 °F -9.9 °F -2.2 °F 85% 30.40 in 10.0 mi North 5.8 mph - N/A   Clear
10:53 PM -0.0 °F -15.3 °F -4.0 °F 83% 30.61 in 10.0 mi NNW 9.2 mph - N/A   Clear
11:53 PM -2.0 °F -13.9 °F -6.0 °F 83% 30.62 in 10.0 mi ENE 5.8 mph - N/A   Clear